Flag for Colombia Weather past 2 weeks in Villavicencio, Colombia

Now
57 °F

Passing clouds.


Feels Like: 55 °F
Forecast: 62 / 90 °F
Wind: 9 mph from East

Location: Bogota / Eldorado

Current Time: Aug 30, 2014 at 8:21:32 PM

Latest Report: Aug 30, 2014 at 8:00 PM


Visibility: N/A

Pressure: 30.40 "Hg

Humidity: 48%

Dew point: 37 °F

Location of VillavicencioLocation

Historic Weather in Villavicencio — Graph

°F

Villavicencio temperature yesterday

Maximum temperature yesterday: 66 °F (at 2:00 PM)
Minimum temperature yesterday: 46 °F (at 6:00 AM)
Average temperature yesterday: 56 °F

Past Weeks' High & Low Weather Summary

 TemperatureHumidityPressure
High68 °F (Aug 22, 11:00 AM)100% (Aug 17, 4:00 AM)30.43 "Hg (Aug 17, 4:00 AM)
Low36 °F (Aug 30, 6:00 AM)30% (Aug 30, 10:00 AM)30.20 "Hg (Aug 25, 4:00 PM)
Average56 °F73%30.33 "Hg
* Reported Aug 15 7:00 PM — Aug 30 7:00 PM, Villavicencio, Weather by CustomWeather, © 2014

Note: Actual official high and low records may vary slightly from our data, if they occured in-between our weather recording intervals... More about our weather records

Advertising

Villavicencio weather history for previous 24 hours

 ConditionsComfort  
Time TempWeatherWind HumidityBarometerVisibility
7:00 PM
Aug 30
55 °FPassing clouds.12 mph51%30.38 "HgN/A
6:00 PM61 °FPassing clouds.15 mph42%30.36 "HgN/A
5:00 PM64 °FScattered clouds.14 mph37%30.34 "HgN/A
4:00 PM66 °FScattered clouds.14 mph37%30.33 "HgN/A
3:00 PM66 °FScattered clouds.12 mph35%30.34 "HgN/A
2:00 PM66 °FScattered clouds.9 mph35%30.35 "HgN/A
1:00 PM68 °FPassing clouds.8 mph35%30.38 "HgN/A
12:00 PM66 °FPassing clouds.17 mph35%30.40 "HgN/A
11:00 AM66 °FPassing clouds.14 mph32%30.42 "HgN/A
10:00 AM66 °FPassing clouds.14 mph30%30.43 "HgN/A
9:00 AM61 °FPassing clouds.7 mph48%30.43 "HgN/A
8:00 AM55 °FPassing clouds.6 mph63%30.43 "HgN/A
7:00 AM45 °FPassing clouds.7 mph87%30.41 "HgN/A
6:00 AM36 °FFog.5 mph100%30.41 "HgN/A
5:00 AM39 °FPassing clouds.3 mph100%30.39 "HgN/A
4:00 AM41 °FPassing clouds.6 mph100%30.39 "HgN/A
3:00 AM41 °FPassing clouds.5 mph93%30.40 "HgN/A
2:00 AM41 °FPassing clouds.3 mph87%30.41 "HgN/A
1:00 AM45 °FPassing clouds.5 mph87%30.41 "HgN/A
12:00 AM46 °FPassing clouds.6 mph82%30.43 "HgN/A
11:00 PM
Aug 29
50 °FPassing clouds.6 mph76%30.42 "HgN/A
10:00 PM52 °FPassing clouds.7 mph72%30.41 "HgN/A
9:00 PM55 °FPassing clouds.14 mph59%30.39 "HgN/A
8:00 PM55 °FPassing clouds.14 mph55%30.37 "HgN/A
Weather by CustomWeather, © 2014

See weather overviewHow to use our weather pages